Location: ??? ?????
(31.1705°N, 45.7523°E)
Time: 12:24:49
(UTC+00:00)

Daily predictions for brighter satellites

Satellite Brightness Start Highest point End
(mag) Time Altitude Azimuth Time Altitude Azimuth Time Altitude Azimuth
Cosmos 614 Rocket 3.9 16:00:21 10° S 16:05:27 70° ESE 16:10:36 10° NNE
YAOGAN 1 3.4 16:01:57 10° S 16:06:10 56° W 16:10:26 10° NNW
Cosmos 1833 Rocket 2.7 16:02:01 10° S 16:07:34 72° ESE 16:13:10 10° NNE
Cosmos 1656 4.3 16:03:32 10° N 16:08:36 36° ENE 16:13:41 10° SE
USA 267 3.9 16:06:01 10° ENE 16:11:44 32° SE 16:17:25 10° S
Cosmos 405 4.3 16:09:39 10° NNW 16:12:57 42° W 16:16:14 10° SSW
CZ-2C R/B 2.9 16:10:21 10° SSE 16:15:13 89° ENE 16:19:58 10° NNW
USA 186 2.5 16:14:17 10° SE 16:15:59 19° ENE 16:17:42 10° NNE
H-2A R/B 2.0 16:11:29 10° SSE 16:16:38 74° ENE 16:21:40 10° N
Cosmos 1697 Rocket 4.0 16:13:38 10° N 16:18:02 23° ENE 16:22:09 11° ESE
Cosmos 2228 Rocket 3.3 16:15:56 10° N 16:20:11 47° E 16:24:23 10° SSE
SL-8 R/B 4.2 16:15:32 10° NW 16:20:14 50° NE 16:24:31 12° ESE
Sich 1 3.7 16:16:35 10° SSE 16:20:36 35° E 16:24:38 10° NNE
Cosmos 1862 3.3 16:17:53 10° S 16:21:52 63° E 16:25:53 10° NNE
SJ-6B 3.8 16:19:05 10° SE 16:22:37 29° ENE 16:26:05 10° NNE
Cosmos 1727 Rocket 4.2 16:17:28 10° N 16:23:43 56° E 16:29:54 10° SSE
Cosmos 1743 Rocket 4.4 16:20:09 10° SSW 16:24:29 57° W 16:28:54 10° N
Shenzhou-11 Module 3.9 16:30:25 10° NNW 16:31:48 14° NNE 16:33:10 10° ENE
Cosmos 676 Rocket 4.5 16:27:40 10° SSE 16:32:32 38° E 16:37:28 10° NE
Resurs 01 Rocket 3.5 16:32:38 12° E 16:33:57 13° ENE 16:36:04 10° NE
Cosmos 1821 Rocket 4.0 16:32:33 10° S 16:38:34 63° E 16:44:40 10° NNE
IRIDIUM 104 4.3 16:34:47 10° SSE 16:39:55 62° E 16:45:03 10° N
Cosmos 1812 3.1 16:38:29 10° N 16:42:07 40° E 16:44:29 19° SE
Cosmos 389 Rocket 2.6 16:39:26 10° N 16:42:50 52° E 16:45:14 18° SSE
Meteor 1-10 Rocket 4.3 16:38:45 10° N 16:44:27 64° E 16:50:14 10° SSE
Cosmos 1867 3.9 16:39:28 10° SSW 16:44:51 72° WNW 16:50:18 10° NNE
Cosmos 1441 Rocket 3.7 16:44:37 10° SSW 16:48:22 60° W 16:52:06 10° N
IRIDIUM 114 4.2 16:43:51 10° S 16:49:02 78° E 16:54:15 10° N
DMSP B5D2-2 4.0 16:46:59 10° NNE 16:52:15 89° E 16:57:30 10° SSW
SL-08 RB Rocket 3.8 16:48:54 10° S 16:53:29 83° WSW 16:58:10 10° NNW
USA 238 DEB 3.5 16:48:03 10° SSW 16:54:35 85° ESE 17:01:21 10° NNE
USA 238 3.5 16:48:10 10° SSW 16:54:41 84° ESE 17:01:27 10° NNE
Cosmos 1666 Rocket 3.5 16:50:51 10° S 16:55:04 59° E 16:59:19 10° NNE
IRIDIUM 103 4.4 16:52:57 10° S 16:58:10 84° W 17:03:24 10° N
Cosmos 1954 Rocket 3.9 16:56:55 10° S 17:02:12 77° ESE 17:07:32 10° NNE
ARGOS 4.0 16:58:26 10° S 17:03:38 49° W 17:08:50 10° NNW
MOS 1 4.3 16:59:17 11° SSE 17:04:48 86° WSW 17:10:28 10° NNW
Cosmos 2239 Rocket 4.4 16:58:55 10° S 17:05:03 90° NE 17:11:13 10° N
CENTAUR R/B 2.3 17:00:31 10° S 17:05:50 56° ESE 17:12:01 10° NE
Ariane Rocket 3.4 17:02:42 10° S 17:07:42 62° WSW 17:12:42 10° NNW
Resurs 1-3 3.8 17:06:15 34° SE 17:07:49 52° ENE 17:12:05 10° N
FREGAT/IRIS 3.6 17:07:51 23° SSW 17:09:00 37° W 17:11:28 10° NNW
Cosmos 1000 Rocket 4.4 17:03:05 10° N 17:09:17 73° E 17:13:56 18° SSE
Cosmos 2123 Rocket 4.4 17:05:19 10° N 17:11:13 43° E 17:13:34 31° SE
Cosmos 2082 Rocket 3.0 17:05:52 10° SW 17:11:25 53° WNW 17:16:59 10° N
Cosmos 220 Rocket 4.2 17:07:48 10° NNW 17:11:59 66° WSW 17:14:25 24° S
Yuri Rocket 3.2 17:07:54 10° WSW 17:12:06 43° S 17:12:36 41° SSE
Cosmos 1605 Rocket 4.3 17:10:04 28° SE 17:12:37 41° E 17:18:16 10° NNE
CZ-2C R/B 3.4 17:08:17 10° N 17:13:18 51° WNW 17:18:24 10° SSW
Skynet4D Del rocket 3.7 17:10:47 10° W 17:15:59 53° S 17:17:43 38° SE
OE (NEXTSAT) 4.1 17:15:43 10° NW 17:19:13 90° SSW 17:19:22 81° SE
Cosmos 2369 3.6 17:14:50 10° NNW 17:20:35 77° ENE 17:22:59 36° SSE
Cosmos 1633 Rocket 3.2 17:19:58 13° SSW 17:23:49 74° W 17:28:14 10° N
MetOp-A 4.4 17:21:47 18° S 17:25:42 66° WSW 17:31:02 10° NNW
Lacrosse 5 4.2 17:24:01 10° NNE 17:25:47 12° NE 17:27:15 10° NE
Cosmos 2278 3.8 17:22:09 10° N 17:27:45 56° ENE 17:29:05 45° ESE
Cosmos 2322 Rocket 4.4 17:27:49 10° NE 17:28:43 10° NE 17:28:52 10° ENE
BREEZE-M DEB (TANK) 1.9 17:26:00 10° NW 17:29:16 59° NW 17:29:16 59° NW
Intercosmos 25 3.8 17:31:29 10° NNW 17:34:39 43° W 17:35:01 41° WSW
SL-24 R/B - RUBIN 2 4.3 17:28:12 10° NNW 17:34:41 89° WSW 17:36:37 46° SSE
Cosmos 1818 4.0 17:30:48 10° NW 17:36:07 56° WSW 17:38:14 34° S
Cosmos 2084 Rocket 3.5 17:35:59 10° SW 17:40:05 72° WNW 17:44:19 10° NNE
ATLAS 5 CENTAUR R/B 3.9 17:34:55 10° NW 17:40:33 34° WSW 17:45:23 16° SSW
Cosmos 921 Rocket 4.2 17:41:35 10° N 17:44:07 29° NNE 17:44:07 29° NNE
OBJECT-B 2.5 17:46:57 31° W 17:46:57 31° W 17:49:48 10° NNW
Cosmos 1707 Rocket 4.5 17:42:54 10° NNW 17:47:01 44° W 17:48:15 35° SW
Meteor 1-20 Rocket 4.3 17:45:23 29° SSW 17:48:27 82° W 17:54:19 10° N
H-2A R/B 3.6 17:44:35 10° N 17:48:22 71° NNW 17:48:22 71° NNW
Cosmos 1980 Rocket 2.0 17:43:13 10° NNW 17:48:53 77° ENE 17:49:29 69° SE
Cosmos 1470 Rocket 3.8 17:51:08 63° WSW 17:51:30 66° W 17:55:52 10° N
Genesis I 4.2 17:49:58 10° NNW 17:52:42 44° NNW 17:52:42 44° NNW
USA 267 3.9 17:48:26 10° NNE 17:54:47 56° NW 18:01:08 10° WSW
NOSS 3-2 (C) 4.1 17:50:17 10° SW 17:55:36 50° WNW 18:01:33 10° NNE
Cosmos 1153 Rocket 4.3 18:00:10 67° E 18:00:10 67° E 18:06:14 10° NNE
Meteor 2-20 Rocket 4.4 17:54:19 10° N 18:00:30 82° W 18:01:45 59° S
Cosmos 1697 Rocket 3.8 17:56:54 10° NW 18:02:02 37° WSW 18:03:55 29° SW
SPOT 1/Viking Rocket 4.3 18:04:26 42° NE 18:04:26 42° NE 18:08:20 10° N
Resurs 01 Rocket 2.6 18:10:13 42° W 18:10:13 42° W 18:14:13 10° NNW
Cosmos 1850 Rocket 4.4 18:10:10 52° WSW 18:11:08 62° WNW 18:16:22 10° N
ERS-1 Rocket 4.4 18:16:12 28° NNE 18:16:12 28° NNE 18:18:53 10° N
ATLAS 3B R/B 3.0 18:27:32 52° NE 18:27:32 52° NE 18:32:23 10° NNE
CZ-3A R/B 4.2 18:13:34 10° W 18:35:18 40° SW 18:36:31 39° SSW
SL-16 R/B 3.4 18:48:58 10° NNW 18:52:22 38° N 18:52:22 38° N
Terra 4.1 19:01:13 20° N 19:01:13 20° N 19:02:41 10° N
Lacrosse 5 4.0 19:04:28 10° NNW 19:06:26 24° NNW 19:06:26 24° NNW
Cosmos 2322 Rocket 3.7 19:07:44 10° NNW 19:10:41 32° NNW 19:10:41 32° NNW
Cosmos 2360 Rocket 4.1 19:18:37 10° N 19:20:54 24° N 19:20:54 24° N
CZ-2D R/B 4.5 22:05:21 10° NNE 22:06:57 19° NNE 22:06:57 19° NNE
Cosmos 2263 Rocket 3.9 22:49:31 29° NNE 22:49:31 29° NNE 22:52:06 10° NNE
Resurs 1-4 Rocket 4.2 22:42:39 10° N 22:44:27 22° N 22:44:27 22° N
SL-16 R/B 3.7 22:52:56 35° N 22:52:56 35° N 22:56:23 10° NNW
Cosmos 1844 Rocket 4.4 23:10:44 24° E 23:10:44 24° E 23:14:42 10° NE
ADEOS II 3.3 23:16:30 10° N 23:19:38 37° N 23:19:38 37° N
Cosmos 1603 4.4 23:26:20 10° NNW 23:30:32 49° N 23:30:32 49° N
SL-08 R/B 4.1 23:41:46 52° ENE 23:41:46 52° ENE 23:46:21 10° N
Meteor 2-21 Rocket 4.4 23:40:21 10° N 23:46:26 78° E 23:46:52 74° SE
CZ-2D R/B 4.3 23:46:52 10° NNW 23:48:16 14° NW 23:48:16 14° NW
ARIANE 5 R/B 2.8 23:46:24 10° NNE 23:50:53 66° N 23:50:53 66° N
Cosmos 1943 3.3 23:46:06 10° NNW 23:50:49 64° NNW 23:50:49 64° NNW
Meteor 2-14 Rocket 4.4 23:47:09 10° N 23:52:37 68° NW 23:52:37 68° NW
